TimeMST,TemperatureF,Dew PointF,Humidity,Sea Level PressureIn,VisibilityMPH,Wind Direction,Wind SpeedMPH,Gust SpeedMPH,PrecipitationIn,Events,Conditions,WindDirDegrees,DateUTC
12:53 AM,35.1,19.0,52,29.81,10.0,NNW,5.8,-,N/A,,Clear,330,2013-11-19 07:53:00
1:53 AM,36.0,18.0,48,29.79,10.0,NNW,3.5,-,N/A,,Clear,330,2013-11-19 08:53:00
2:53 AM,36.0,18.0,48,29.77,10.0,Calm,Calm,-,N/A,,Clear,0,2013-11-19 09:53:00
3:53 AM,36.0,18.0,48,29.75,10.0,South,3.5,-,N/A,,Clear,170,2013-11-19 10:53:00
4:53 AM,32.0,19.0,59,29.78,10.0,Calm,Calm,-,N/A,,Clear,0,2013-11-19 11:53:00
5:53 AM,30.0,18.0,61,29.80,10.0,WNW,9.2,-,N/A,,Clear,290,2013-11-19 12:53:00
6:53 AM,27.0,19.0,72,29.79,10.0,SE,6.9,-,N/A,,Clear,130,2013-11-19 13:53:00
7:53 AM,33.1,19.0,56,29.79,10.0,West,5.8,-,N/A,,Clear,260,2013-11-19 14:53:00
8:53 AM,35.1,21.0,57,29.77,10.0,East,4.6,-,N/A,,Clear,80,2013-11-19 15:53:00
9:53 AM,41.0,21.9,47,29.78,10.0,Calm,Calm,-,N/A,,Clear,0,2013-11-19 16:53:00
10:53 AM,43.0,23.0,45,29.77,10.0,SW,3.5,-,N/A,,Scattered Clouds,220,2013-11-19 17:53:00
11:53 AM,43.0,25.0,49,29.75,10.0,South,5.8,-,N/A,,Clear,170,2013-11-19 18:53:00
12:53 PM,46.9,25.0,42,29.70,10.0,Variable,5.8,-,N/A,,Clear,0,2013-11-19 19:53:00
1:53 PM,52.0,24.1,34,29.66,10.0,East,5.8,-,N/A,,Clear,90,2013-11-19 20:53:00
2:53 PM,52.0,24.1,34,29.66,10.0,ENE,4.6,-,N/A,,Mostly Cloudy,70,2013-11-19 21:53:00
3:53 PM,50.0,25.0,38,29.67,10.0,ESE,5.8,-,N/A,,Partly Cloudy,120,2013-11-19 22:53:00
4:53 PM,48.0,23.0,37,29.71,10.0,WNW,10.4,-,N/A,,Clear,300,2013-11-19 23:53:00
5:53 PM,46.0,21.9,39,29.74,10.0,West,12.7,-,N/A,,Clear,280,2013-11-20 00:53:00
6:53 PM,42.1,24.1,49,29.78,10.0,SSW,3.5,-,N/A,,Clear,210,2013-11-20 01:53:00
7:53 PM,42.1,24.1,49,29.75,10.0,SW,4.6,-,N/A,,Clear,220,2013-11-20 02:53:00
8:53 PM,39.0,25.0,57,29.77,10.0,Calm,Calm,-,N/A,,Clear,0,2013-11-20 03:53:00
9:53 PM,37.9,25.0,60,29.75,10.0,ESE,5.8,-,N/A,,Clear,120,2013-11-20 04:53:00
10:53 PM,37.0,25.0,62,29.75,10.0,SSE,3.5,-,N/A,,Clear,160,2013-11-20 05:53:00
11:53 PM,34.0,24.1,67,29.77,10.0,SE,4.6,-,N/A,,Clear,130,2013-11-20 06:53:00